Location: ????????
(55.3939°N, 37.4780°E)
Time: 21:07:46
(UTC+00:00)

Cosmos 2333 Rocket - Pass Details

Date: 14 April 2026
Orbit: 842 x 861 km, 70.8° (Epoch: 16 May)

Event Time Altitude Azimuth Distance (km) Brightness Sun altitude
Rises 22:43:10 0° 322° (NW) 3,410 5.8 -23.2°
Reaches altitude 10° 22:45:55 10° 332° (NNW) 2,474 5.2 -23.0°
Maximum altitude 22:50:56 31° 35° (NE) 1,442 4.0 -22.8°
Drops below altitude 10° 22:55:57 10° 97° (E) 2,471 4.8 -22.5°
Sets 22:58:41 0° 107° (ESE) 3,407 5.4 -22.4°
